Location: *
(43.9900°N, 3.4811°E)
Time: 18:43:41
(UTC+00:00)

Meteor 1-5 Rocket - Pass Details

Date: 25 August 2019
Orbit: 789 x 915 km, 81.2° (Epoch: 18 October)

Event Time Altitude Azimuth Distance (km) Brightness Sun altitude
Rises 19:48:34 0° 182° (S) 3,466 7.1 -13.1°
Reaches altitude 10° 19:51:02 10° 180° (S) 2,514 6.4 -13.5°
Maximum altitude 19:56:42 72° 98° (E) 894 4.1 -14.3°
Drops below altitude 10° 20:02:14 10° 14° (NNE) 2,446 6.8 -15.2°
Sets 20:04:37 0° 13° (NNE) 3,366 7.6 -15.6°
